Terug naar catalogus

COSMOS 1275 DEB

ActiefPO
NORAD 13460·DEBRIS·🇷🇺 Russia

Gelanceerd Jun 4, 1981 vanaf Plesetsk Cosmodrome

Loading…

Volgende Passages (komende 24 uur)

TLE

VersSource: Space-Track

Epoch: Sep 14, 2026, 22:26 UTC

1 13460U 81053FG  26257.93491071  .00000525  00000-0  47908-3 0  9990
2 13460  83.1269 243.9431 0087500 107.7225 281.9669 13.79619841235162

Volg COSMOS 1275 DEB in realtime met AllMySat

Download on the App Store